Flag for United Kingdom Weather past 2 weeks in Crawley, England, United Kingdom

Now
55 °F

Passing clouds.


Feels Like: 54 °F
Forecast: N/A
Wind: 6 mph from Southwest

Location: London / Gatwick Airport

Current Time: Oct 26, 2014 at 3:17:32 AM

Latest Report: Oct 26, 2014 at 2:50 AM


Visibility: N/A

Pressure: 30.18 "Hg

Humidity: 72%

Dew point: 46 °F

Location of CrawleyLocation

Historic Weather in Crawley — Graph

°F

Crawley temperature yesterday

Maximum temperature yesterday: 59 °F (at 3:20 PM)
Minimum temperature yesterday: 43 °F (at 4:50 AM)
Average temperature yesterday: 52 °F

Past Weeks' High & Low Weather Summary

 TemperatureHumidityPressure
High68 °F (Oct 18, 12:50 PM)100% (Oct 11, 3:20 AM)30.30 "Hg (Oct 11, 3:20 AM)
Low39 °F (Oct 12, 3:20 AM)48% (Oct 21, 3:20 PM)29.42 "Hg (Oct 13, 5:50 AM)
Average56 °F88%29.87 "Hg
* Reported Oct 11 3:20 AM — Oct 26 2:20 AM, Crawley, Weather by CustomWeather, © 2014

Note: Actual official high and low records may vary slightly from our data, if they occured in-between our weather recording intervals... More about our weather records

Advertising

Crawley weather history for previous 24 hours

 ConditionsComfort  
Time TempWeatherWind HumidityBarometerVisibility
2:20 AM
Oct 26
54 °FPassing clouds.6 mph77%30.18 "HgN/A
1:50 AM54 °FPassing clouds.5 mph77%30.18 "HgN/A
1:20 AM54 °FPassing clouds.5 mph77%30.18 "HgN/A
1:50 AM54 °FPassing clouds.6 mph77%30.18 "HgN/A
1:20 AM54 °FPassing clouds.6 mph82%30.18 "HgN/A
12:50 AM54 °FPassing clouds.7 mph82%30.18 "HgN/A
12:20 AM54 °FPassing clouds.5 mph82%30.18 "HgN/A
11:50 PM
Oct 25
54 °FPassing clouds.5 mph82%30.18 "HgN/A
11:20 PM54 °FPassing clouds.5 mph82%30.18 "HgN/A
10:50 PM54 °FPassing clouds.5 mph82%30.18 "HgN/A
10:20 PM54 °FPassing clouds.6 mph82%30.15 "HgN/A
9:50 PM52 °FPassing clouds.5 mph88%30.15 "HgN/A
9:20 PM52 °FPassing clouds.5 mph88%30.15 "HgN/A
8:50 PM54 °FPassing clouds.6 mph82%30.15 "HgN/A
8:20 PM54 °FPartly cloudy.6 mph82%30.15 "HgN/A
7:50 PM55 °FPassing clouds.6 mph77%30.15 "HgN/A
7:20 PM54 °FPassing clouds.7 mph82%30.12 "HgN/A
6:50 PM54 °FPassing clouds.6 mph77%30.12 "HgN/A
6:20 PM54 °FScattered clouds.3 mph77%30.12 "HgN/A
5:50 PM55 °FScattered clouds.6 mph72%30.09 "HgN/A
5:20 PM55 °FScattered clouds.6 mph72%30.09 "HgN/A
4:50 PM57 °FScattered clouds.8 mph67%30.09 "HgN/A
4:20 PM57 °FScattered clouds.8 mph67%30.09 "HgN/A
3:50 PM57 °FPartly sunny.7 mph67%30.09 "HgN/A
3:20 PM59 °FScattered clouds.9 mph63%30.09 "HgN/A
2:50 PM57 °FScattered clouds.9 mph67%30.09 "HgN/A
2:20 PM57 °FScattered clouds.9 mph67%30.09 "HgN/A
1:50 PM57 °FPartly sunny.8 mph67%30.09 "HgN/A
1:20 PM55 °FPartly sunny.9 mph72%30.09 "HgN/A
12:50 PM55 °FPartly sunny.9 mph72%30.09 "HgN/A
12:20 PM55 °FPartly sunny.8 mph72%30.09 "HgN/A
11:50 AM55 °FScattered clouds.7 mph72%30.09 "HgN/A
11:20 AM55 °FScattered clouds.9 mph72%30.09 "HgN/A
10:50 AM54 °FPartly sunny.7 mph77%30.09 "HgN/A
10:20 AM54 °FPartly sunny.6 mph72%30.09 "HgN/A
9:50 AM52 °FPartly sunny.6 mph82%30.09 "HgN/A
9:20 AM52 °FPartly sunny.5 mph82%30.09 "HgN/A
8:50 AM50 °FPartly sunny.6 mph88%30.09 "HgN/A
8:20 AM48 °FPassing clouds.5 mph94%30.07 "HgN/A
7:50 AM48 °FPassing clouds.5 mph94%30.07 "HgN/A
7:20 AM48 °FPassing clouds.3 mph94%30.04 "HgN/A
6:50 AM48 °FPassing clouds.5 mph94%30.04 "HgN/A
6:20 AM46 °FPassing clouds.6 mph100%30.04 "HgN/A
5:50 AM46 °FPassing clouds.6 mph100%30.04 "HgN/A
5:20 AM46 °FPassing clouds.5 mph100%30.04 "HgN/A
4:50 AM43 °FPassing clouds.5 mph100%30.04 "Hg6 mi
4:20 AM45 °FClear.5 mph100%30.04 "Hg10 mi
3:50 AM45 °FClear.6 mph100%30.04 "Hg10 mi
3:20 AM45 °FClear.3 mph93%30.04 "Hg10 mi
Weather by CustomWeather, © 2014

See weather overviewHow to use our weather pages